Bennington, VT

10:58 PM EDT on July 26, 2017 (GMT -0400)
Morse State

Weather History for KDDH - February, 2011

Change the Weather History Date:

Saturday, February 19, 2011

  Actual Average Record
Temperature  
Mean Temperature 26 °F 26 °F  
Max Temperature 39 °F 36 °F 52 °F (2017)
Min Temperature 12 °F 16 °F 3 °F (2015)
Degree Days  
Heating Degree Days 40 39  
Month to date heating degree days 779  
Since 1 July heating degree days 4910  
Cooling Degree Days 0 0  
Month to date cooling degree days 0  
Year to date cooling degree days 0  
Moisture  
Dew Point 14 °F    
Average Humidity 64    
Maximum Humidity 80    
Minimum Humidity 49    
Precipitation  
Precipitation 0.00 in 0.08 in 0.09 in (2014)
Month to date precipitation 1.40  
Year to date precipitation 4.15  
Sea Level Pressure  
Sea Level Pressure 29.70 in    
Wind  
Wind Speed 16 mph (WNW)    
Max Wind Speed 24 mph    
Max Gust Speed 44 mph    
Visibility 8 miles    
Events Snow    
T = Trace of Precipitation, MM = Missing Value Source: NWS Daily Summary

Daily Weather History Graph

Daily Weather History Graph

Search for Another Location

Airport or City:

Trip Planner

Search our weather history database for the weather conditions in past years. The results will help you decide how hot, cold, wet, or windy it might be!

Date:

Astronomy

Feb. 19, 2011 Rise Set
Actual Time 6:44 AM EST 5:29 PM EST
Civil Twilight 6:16 AM EST 5:58 PM EST
Nautical Twilight 5:43 AM EST 6:31 PM EST
Astronomical Twilight 5:10 AM EST 7:04 PM EST
Moon 7:38 PM EST (2/19) 7:02 AM EST (2/19)
Length of Visible Light 11h 42m
Length of Day
10h 44m
Full, 97% of the Moon is Illuminated
Feb 19
Full
Feb 24
Last Quarter
Mar 4
New
Mar 12
First Quarter
Mar 19
Full

Hourly Weather History & Observations

Time (EST) Temp. Windchill Dew Point Humidity Pressure Visibility Wind Dir Wind Speed Gust Speed Precip Events Conditions
12:54 AM 39.9 °F 30.5 °F 23.0 °F 51% 29.57 in 10.0 mi NW 19.6 mph 43.7 mph N/A   Overcast
1:11 AM 37.4 °F 26.9 °F 26.6 °F 65% 29.57 in 6.0 mi WNW 20.7 mph 36.8 mph 0.00 in Snow Light Snow
1:23 AM 35.6 °F 25.5 °F 28.4 °F 75% 29.56 in 7.0 mi West 17.3 mph 24.2 mph 0.00 in Snow Light Snow
1:54 AM 35.1 °F 26.4 °F 27.0 °F 72% 29.57 in 5.0 mi West 12.7 mph 26.5 mph 0.00 in Snow Light Snow
2:54 AM 34.0 °F 26.0 °F 24.1 °F 67% 29.55 in 10.0 mi West 10.4 mph 26.5 mph 0.00 in   Overcast
3:13 AM 33.8 °F 23.9 °F 26.6 °F 75% 29.55 in 1.8 mi WNW 15.0 mph 31.1 mph 0.00 in Snow Light Snow
3:20 AM 33.8 °F 24.3 °F 26.6 °F 75% 29.55 in 3.0 mi WNW 13.8 mph 33.4 mph 0.00 in Snow Light Snow
3:54 AM 33.1 °F 21.9 °F 25.0 °F 72% 29.57 in 10.0 mi West 18.4 mph 29.9 mph 0.00 in   Overcast
4:06 AM 32.0 °F 22.5 °F 26.6 °F 80% 29.55 in 10.0 mi West 12.7 mph 31.1 mph N/A   Overcast
4:15 AM 32.0 °F 23.0 °F 26.6 °F 80% 29.55 in 10.0 mi West 11.5 mph 24.2 mph N/A   Overcast
4:24 AM 32.0 °F 21.6 °F 26.6 °F 80% 29.56 in 8.0 mi West 15.0 mph 26.5 mph N/A   Overcast
4:54 AM 32.0 °F 20.5 °F 25.0 °F 75% 29.58 in 10.0 mi WNW 18.4 mph 36.8 mph 0.00 in   Overcast
5:54 AM 30.0 °F 17.5 °F 15.1 °F 54% 29.60 in 10.0 mi WNW 19.6 mph 28.8 mph N/A   Overcast
6:54 AM 28.0 °F 17.5 °F 14.0 °F 56% 29.62 in 10.0 mi West 12.7 mph 24.2 mph N/A   Overcast
7:54 AM 27.0 °F 14.3 °F 12.9 °F 56% 29.65 in 10.0 mi West 17.3 mph 25.3 mph N/A   Overcast
8:54 AM 26.1 °F 11.0 °F 10.0 °F 51% 29.66 in 10.0 mi West 24.2 mph 38.0 mph N/A   Overcast
9:26 AM 24.8 °F 11.1 °F 15.8 °F 69% 29.66 in 2.5 mi NW 18.4 mph 26.5 mph 0.00 in Snow Light Snow
9:37 AM 24.8 °F 12.4 °F 12.2 °F 59% 29.65 in 8.0 mi WNW 15.0 mph 23.0 mph 0.00 in   Overcast
9:44 AM 24.8 °F 13.4 °F 12.2 °F 59% 29.65 in 10.0 mi WNW 12.7 mph 33.4 mph 0.00 in   Overcast
9:54 AM 25.0 °F 13.6 °F 12.9 °F 60% 29.68 in 10.0 mi NW 12.7 mph 25.3 mph 0.00 in   Overcast
10:04 AM 24.8 °F 11.9 °F 12.2 °F 59% 29.66 in 10.0 mi NW 16.1 mph 27.6 mph N/A   Overcast
10:11 AM 24.8 °F 14.0 °F 12.2 °F 59% 29.67 in 10.0 mi NW 11.5 mph 23.0 mph N/A   Overcast
10:54 AM 24.1 °F 11.0 °F 10.0 °F 55% 29.69 in 10.0 mi WNW 16.1 mph 31.1 mph N/A   Overcast
11:54 AM 24.1 °F 8.7 °F 9.0 °F 53% 29.70 in 10.0 mi West 23.0 mph 33.4 mph N/A   Scattered Clouds
12:54 PM 23.0 °F 8.7 °F 10.0 °F 58% 29.69 in 10.0 mi West 18.4 mph 32.2 mph N/A   Mostly Cloudy
1:41 PM 21.2 °F 10.9 °F 15.8 °F 80% 29.66 in 2.5 mi WSW 9.2 mph 19.6 mph 0.00 in Snow Light Snow
1:54 PM 21.9 °F 8.2 °F 16.0 °F 78% 29.70 in 2.0 mi West 16.1 mph 21.9 mph 0.00 in Snow Light Snow
2:05 PM 21.2 °F 7.3 °F 15.8 °F 80% 29.67 in 5.0 mi West 16.1 mph 24.2 mph 0.00 in Snow Light Snow
2:12 PM 21.2 °F 6.4 °F 15.8 °F 80% 29.67 in 6.0 mi West 18.4 mph 24.2 mph 0.00 in   Haze
3:54 PM 21.9 °F 9.8 °F 7.0 °F 53% 29.75 in 10.0 mi WNW 12.7 mph 28.8 mph N/A   Overcast
4:03 PM 21.2 °F 8.3 °F 10.4 °F 63% 29.74 in 1.8 mi NW 13.8 mph 29.9 mph 0.00 in Snow Light Snow
4:10 PM 21.2 °F 9.5 °F 10.4 °F 63% 29.74 in 2.0 mi NW 11.5 mph 21.9 mph 0.00 in Snow Light Snow
4:12 PM 21.2 °F 9.5 °F 10.4 °F 63% 29.74 in 3.0 mi NNW 11.5 mph 18.4 mph 0.00 in Snow Light Snow
4:24 PM 21.2 °F 9.5 °F 10.4 °F 63% 29.75 in 8.0 mi NNW 11.5 mph 23.0 mph 0.00 in   Overcast
4:34 PM 19.4 °F 5.0 °F 8.6 °F 63% 29.76 in 3.0 mi NNW 16.1 mph 26.5 mph 0.00 in Snow Light Snow
4:54 PM 18.0 °F 1.3 °F 7.0 °F 62% 29.81 in 6.0 mi NNW 20.7 mph 31.1 mph 0.00 in   Haze
5:54 PM 15.1 °F -0.1 °F -0.0 °F 51% 29.88 in 10.0 mi NNW 15.0 mph 29.9 mph 0.00 in   Overcast
6:54 PM 14.0 °F -1.4 °F -2.0 °F 49% 29.92 in 10.0 mi NNW 15.0 mph 26.5 mph N/A   Mostly Cloudy
7:54 PM 14.0 °F -2.0 °F -0.9 °F 52% 29.94 in 10.0 mi NNW 16.1 mph 24.2 mph N/A   Overcast
8:54 PM 14.0 °F -3.4 °F -2.0 °F 49% 29.97 in 10.0 mi NNW 19.6 mph 27.6 mph N/A   Overcast
9:54 PM 12.9 °F -3.9 °F -0.9 °F 54% 30.00 in 10.0 mi NW 17.3 mph 28.8 mph N/A   Mostly Cloudy
10:54 PM 12.9 °F -0.2 °F -0.9 °F 54% 30.03 in 10.0 mi NW 10.4 mph 23.0 mph N/A   Mostly Cloudy
11:54 PM 12.0 °F -2.0 °F -0.0 °F 59% 30.07 in 10.0 mi NW 11.5 mph 21.9 mph N/A   Scattered Clouds